Regional Weather Roundup
Issued by NWS State College, PA

Home | Current Version | Previous Version | Graphics & Text | Print | Product List | Glossary On
Versions: 1 2 3 4 5 6 7 8 9 10 11 12 13 14 15 16 17 18 19 20 21 22 23 24 25 26 27 28 29 30 31 32 33 34 35 36 37 38 39 40 41 42 43 44 45 46 47 48 49 50
000
ASUS41 KCTP 231010
RWRCTP

REGIONAL WEATHER ROUNDUP
NATIONAL WEATHER SERVICE STATE COLLEGE PA
600 AM EDT SAT AUG 23 2014

Note: "fair" indicates few or no clouds below 12,000 feet with no
significant weather and/or obstructions to visibility.

* = STATION THAT DOES NOT REPORT PRECIPITATION /E.G. RAIN...SNOW...ETC/
    THUNDER OR FOG.

PAZ002>004-007>009-013>016-020>023-029>032-231100-
WESTERN PENNSYLVANIA

CITY           SKY/WX    TMP DP  RH WIND       PRES   REMARKS
ERIE           MOCLDY    70  66  87 NE7       30.01R FOG
MEADVILLE      FOG       64  63  96 N5        30.02R VSB 3/4
FRANKLIN*      CLOUDY    63  59  88 N3        30.03R VSB<1/4
NEW CASTLE     NOT AVBL
BEAVER COUNTY  NOT AVBL
BUTLER*        CLOUDY    66  64  94 CALM      30.01S
PITTSBURGH INT FOG       69  69 100 NW3       29.99R VSB 1/4
PITTSBURGH     MOCLDY    69  67  93 CALM      29.98S FOG
INDIANA*       CLOUDY    70  68  94 CALM      30.03S FOG
LATROBE        CLOUDY    70  70 100 CALM      30.00R FOG
WASHINGTON CO* CLOUDY    66  66 100 CALM      30.00R VSB 3/4
$$

PAZ004>006-010>012-017>019-024>028-033>037-041-042-045-046-049>053-231100-
CENTRAL PENNSYLVANIA

CITY           SKY/WX    TMP DP  RH WIND       PRES   REMARKS
BRADFORD       FOG       64  63  96 CALM      30.04R VSB 1/4
DUBOIS         FOG       66  66 100 E3        30.01R VSB 1/4
CLEARFIELD     FOG       66  66 100 NE6       30.02R VSB 3/4
JOHNSTOWN      CLOUDY    67  65  93 SW5       30.03R FOG
ALTOONA        CLOUDY    69  68  96 CALM      30.01S FOG
STATE COLLEGE  CLOUDY    68  66  94 CALM      30.01R FOG
WILLIAMSPORT   CLOUDY    65  60  84 NE16      30.02R
SELINSGROVE    CLOUDY    65  61  87 E5        30.04R
FT INDIANTOWN  LGT RAIN  63  63 100 NE3       30.05R
CAPITAL CITY   CLOUDY    68  61  78 SE9       30.02R
HARRISBURG     CLOUDY    69  61  75 SE9       30.02R
YORK           CLOUDY    67  62  84 E8        30.02R
$$

PAZ038>040-043-044-047-048-054-055-060>062-067>071-231100-
EASTERN PENNSYLVANIA

CITY           SKY/WX    TMP DP  RH WIND       PRES   REMARKS
SCRANTON       LGT RAIN  64  59  83 CALM      30.06R
MOUNT POCONO   LGT RAIN  60  58  92 SE9       30.09R FOG
ALLENTOWN      RAIN      65  60  84 E3        30.06R
QUAKERTOWN*    CLOUDY    64  63  94 CALM      30.06R
READING        HVY RAIN  65  63  93 VRB3      30.04R FOG
LANCASTER      CLOUDY    66  61  84 E6        30.03S
COATESVILLE    CLOUDY    64  64 100 E8        30.05R
POTTSTOWN      CLOUDY    65  62  90 N3        30.06R
BLUE BELL      MOCLDY    64  63  94 CALM      30.04R
DOYLESTOWN     CLOUDY    64  62  93 CALM      30.04R
WILLOW GROVE   NOT AVBL
NORTH PHILA    CLOUDY    68  61  78 NE7       30.05R
PHILADELPHIA   MOCLDY    68  62  81 NE8       30.03R
$$



USA.gov is the U.S. government's official web portal to all federal, state and local government web resources and services.